Probability
30 27 24 24 26 28 27 23 21 21 20 19 18 19 21 23 24 24 20 16 17 21 24 25 24 20 18 17 15 14 12 11 9 5 6 8 8 7 7 6 5 4 4
33 30 26 25 25 25 22 19 19 19 18 17 16 17 20 23 23 22 18 16 17 20 22 24 24 22 20 19 17 15 12 10 8 6 7 9 9 8 7 6 5 5 4
33 33 30 26 22 18 15 14 14 14 14 13 12 14 17 19 19 18 17 17 18 20 21 22 23 22 22 20 17 14 11 8 8 8 8 9 9 9 9 8 8 7 6
32 34 33 27 22 18 13 10 10 11 11 11 13 16 16 16 15 17 18 19 20 22 23 23 21 20 19 16 13 11 10 9 9 9 9 9 10 11 12 12 11 10 9
34 34 34 31 27 24 19 13 11 14 15 15 17 19 19 16 14 14 16 17 19 23 25 24 20 15 13 10 8 8 9 9 9 9 9 9 10 12 14 13 11 10 9
34 35 34 32 30 27 22 18 17 20 22 21 21 22 21 17 11 8 9 12 17 22 26 24 18 11 8 5 3 3 4 5 6 8 8 8 10 12 13 12 10 8 7
34 35 35 32 29 26 22 20 21 24 25 24 23 23 21 15 9 4 4 9 16 22 25 24 18 11 8 6 5 4 4 4 4 6 8 9 10 12 13 13 12 10 9
36 36 33 29 27 26 23 21 21 23 23 24 24 24 21 15 8 3 3 8 15 20 23 22 18 13 10 9 8 9 9 8 5 5 7 8 9 9 11 12 13 12 11
34 33 29 25 23 23 22 20 19 20 21 22 24 24 21 16 8 3 3 8 14 17 18 17 15 13 10 7 8 11 12 11 8 5 5 5 4 4 5 8 10 10 9
27 27 26 23 20 19 19 17 17 18 19 19 20 21 19 16 10 3 3 9 13 14 13 11 10 9 6 4 5 9 10 10 10 8 5 4 3 3 4 5 8 9 9
23 22 22 20 16 13 14 14 15 16 15 14 15 14 13 13 9 3 2 7 10 11 10 8 6 5 3 2 2 5 6 7 9 8 6 5 6 7 7 6 7 8 8
21 19 17 15 11 8 9 11 11 11 10 8 9 9 8 8 6 2 1 2 6 8 8 6 4 2 1 0 0 1 2 3 5 5 4 3 5 7 7 7 7 7 6
20 17 13 12 8 7 8 8 7 7 7 5 5 6 6 6 5 3 1 1 2 4 6 4 2 1 0 0 0 0 0 0 1 1 1 1 2 4 5 5 5 5 4
18 16 13 12 10 9 9 7 6 6 5 5 4 4 5 5 4 2 2 2 2 2 2 1 0 0 0 0 0 0 0 0 0 0 0 0 1 2 3 3 2 2 2
18 14 12 11 10 10 9 7 5 5 5 5 5 4 3 3 1 1 2 2 2 2 1 0 0 1 1 1 1 0 0 0 0 1 1 1 1 2 2 2 2 2 2
16 13 9 9 10 11 10 6 3 2 2 3 3 2 1 1 0 0 1 1 1 1 0 0 0 1 2 2 2 1 1 1 1 2 2 2 2 2 3 4 5 5 4
13 10 8 8 9 10 9 6 2 1 0 1 1 1 0 0 0 0 0 0 0 0 0 0 0 1 1 1 2 2 2 2 2 2 2 2 2 2 3 4 6 6 5
9 8 7 8 9 9 7 5 3 1 1 1 0 0 0 0 0 0 0 0 0 0 0 0 0 0 0 0 1 1 1 1 1 1 1 1 1 1 1 2 3 4 3
8 8 8 9 9 8 6 4 3 2 2 1 0 0 0 0 0 0 0 0 0 0 0 0 0 0 0 0 0 0 0 0 0 0 0 0 0 0 0 0 1 1 1
7 7 7 8 8 6 5 3 2 2 2 1 1 0 0 0 1 1 0 0 0 0 0 0 0 0 0 0 0 0 0 0 0 0 0 0 0 0 0 0 0 0 0
6 5 6 7 7 6 4 3 1 0 0 1 1 1 0 1 2 2 1 0 0 0 0 0 0 0 0 0 0 0 0 0 0 0 0 0 0 0 0 0 0 0 0
4 4 5 6 6 5 3 1 0 0 0 0 1 1 1 1 3 3 2 1 1 0 0 0 0 0 0 0 0 0 0 0 0 0 0 0 0 0 0 0 0 0 0
3 4 4 4 3 2 1 0 0 0 0 0 0 1 1 2 3 3 2 2 2 1 1 1 0 0 0 0 0 0 0 0 0 0 0 0 0 0 0 0 0 0 0
2 2 2 1 1 0 0 0 0 0 0 0 0 0 1 1 2 1 1 1 2 2 2 1 0 0 0 0 0 0 0 0 0 0 0 0 0 0 0 0 0 0 0
1 1 0 0 0 0 0 0 0 0 0 0 0 0 0 0 0 0 0 0 1 1 1 1 0 0 0 0 0 0 0 0 0 0 0 0 0 0 0 0 0 0 0
0 0 0 0 0 0 0 0 0 0 0 0 0 0 0 0 0 0 0 0 0 0 0 0 0 0 0 0 0 0 0 0 0 0 0 0 0 0 0 0 0 0 0
Wind_Speed
9 9 8 8 9 8 8 8 7 7 7 7 7 7 7 7 7 7 7 7 7 6 6 6 7 6 4 4 4 5 4 4 5 4 2 1 2 4 2 4 5 6 6
8 8 8 7 7 7 7 7 7 7 7 7 6 7 7 7 7 7 8 7 7 7 7 6 7 5 6 5 4 5 4 4 5 5 4 3 3 4 4 5 5 5 5
7 7 7 7 7 7 6 6 6 6 6 6 6 7 7 6 7 7 7 7 7 6 6 6 6 6 6 5 5 5 4 4 5 5 5 2 3 3 4 5 5 4 6
7 7 7 7 7 6 6 6 6 6 6 6 6 6 5 6 6 6 6 6 6 6 5 5 5 5 5 5 5 5 4 4 5 5 4 4 3 3 3 4 4 4 4
6 6 6 5 5 5 5 5 5 5 5 5 5 4 4 4 4 5 5 6 5 5 5 5 5 3 2 3 3 3 4 4 4 5 4 4 3 2 3 4 4 3 3
6 6 5 5 5 5 4 5 5 5 4 4 3 4 4 3 1 1 4 5 5 5 5 5 4 5 4 3 2 1 2 4 4 4 4 3 3 3 3 4 4 4 4
5 5 5 5 5 5 5 5 4 4 4 4 3 3 3 1 2 2 2 4 4 3 3 3 3 2 3 3 4 4 2 1 3 4 4 4 3 3 3 4 4 5 5
5 5 5 5 5 5 4 4 4 3 3 3 3 2 2 1 2 2 2 3 2 2 1 1 1 1 1 1 2 2 1 1 1 2 2 3 3 4 3 4 4 5 5
4 4 4 5 5 5 5 4 3 3 3 3 2 2 1 2 2 1 2 2 2 1 1 1 1 1 3 2 1 1 1 0 2 3 3 2 4 5 5 4 4 4 4
4 3 4 4 4 5 5 4 4 4 4 3 3 3 2 2 3 2 2 2 2 2 2 3 4 4 4 2 2 1 1 0 1 2 1 0 1 1 1 3 4 4 4
4 3 4 4 4 4 4 4 4 4 4 3 4 3 3 3 4 4 2 0 1 2 2 2 4 7 6 4 3 2 2 1 1 1 1 1 1 1 1 1 3 3 4
4 4 4 3 3 3 4 4 3 4 4 4 4 3 3 3 4 4 4 3 2 3 3 3 5 8 7 5 4 4 3 1 1 1 1 2 2 2 2 3 3 3 3
5 5 4 4 3 3 4 4 3 3 3 3 3 3 3 3 5 6 6 5 4 4 5 8 8 7 6 6 5 4 2 1 2 1 2 2 2 3 2 2 2 1 1
5 5 4 4 4 4 2 2 2 2 2 2 2 3 3 3 3 3 3 4 6 6 5 8 8 7 5 5 4 3 3 3 3 2 2 2 2 2 2 2 2 2 2
5 5 4 4 5 5 5 5 4 5 4 2 2 3 3 4 5 6 4 4 3 4 4 5 4 4 4 4 3 3 3 2 2 3 3 3 3 2 2 3 3 3 3
5 5 4 4 4 5 7 8 13 10 11 11 9 7 7 8 8 8 8 8 6 5 4 5 4 4 4 4 3 3 3 3 3 3 3 3 3 3 3 3 3 3 3
5 5 4 4 4 4 5 6 7 8 12 12 11 11 10 9 8 7 7 7 5 4 4 5 4 4 4 4 4 4 4 4 3 4 4 4 4 4 4 4 4 4 4
5 5 4 4 4 4 5 5 5 6 7 7 9 10 9 8 7 5 4 5 6 5 5 5 4 4 4 4 4 4 3 4 4 4 4 4 4 4 4 4 4 6 5
5 4 4 4 5 5 5 5 6 6 6 6 7 7 7 7 6 5 3 4 5 5 5 5 5 4 4 4 4 4 4 4 4 4 4 4 4 4 4 5 5 5 5
5 7 5 5 5 5 5 5 6 6 6 5 5 5 5 4 5 5 5 5 5 5 5 5 5 5 5 4 4 4 4 4 5 4 5 4 4 4 5 5 5 5 5
6 7 8 6 6 6 6 6 6 6 6 6 6 6 4 4 6 6 5 6 5 5 5 5 5 5 5 4 4 5 5 5 5 5 5 5 5 5 5 5 5 6 6
6 6 6 7 6 6 6 6 6 7 8 8 7 6 5 5 6 6 6 6 6 6 5 5 5 5 5 5 4 4 5 5 5 5 5 5 5 5 5 5 6 6 6
7 8 8 8 7 7 7 7 7 7 7 7 6 5 6 6 6 6 6 6 5 5 5 5 5 5 6 5 5 5 5 6 6 6 6 5 5 5 5 6 7 7 7
7 8 8 8 7 7 7 7 7 7 7 7 6 6 6 6 6 6 6 6 5 5 5 5 5 7 8 6 5 6 7 7 7 5 6 6 6 6 6 6 7 8 7
7 8 8 8 7 7 7 7 7 7 7 7 6 6 6 6 6 6 5 5 6 5 6 5 5 5 7 8 8 8 8 7 6 7 6 5 6 6 6 7 7 8 8
8 8 7 7 7 7 7 7 7 7 7 6 6 6 5 5 5 5 4 4 4 5 5 5 6 6 6 6 8 8 5 6 7 8 8 5 5 6 7 7 8 8 8
Wind_Direction
200 201 204 205 206 208 213 218 218 220 220 221 221 221 219 218 215 215 222 215 220 223 225 225 229 243 239 237 231 237 242 248 258 266 257 226 233 266 234 232 226 222 202
193 198 202 203 205 207 211 215 215 217 220 219 218 221 222 218 216 216 221 219 222 224 224 226 228 224 226 243 241 239 240 248 256 264 264 242 230 239 239 245 239 229 232
185 194 197 200 206 210 212 210 209 213 217 217 216 220 223 222 219 220 223 225 226 227 228 228 230 228 226 228 235 239 238 238 247 256 255 247 243 237 237 238 241 246 250
179 188 193 197 200 204 206 202 201 205 211 212 215 218 221 223 222 222 222 223 227 228 230 232 230 227 225 230 233 239 248 254 248 253 253 247 242 238 248 247 245 227 247
175 183 190 188 188 190 193 193 194 200 204 203 207 210 217 221 224 221 220 219 224 226 225 226 225 220 233 243 254 241 241 249 247 247 249 254 253 252 252 257 266 265 252
172 175 175 173 173 176 181 183 182 186 191 190 196 203 211 220 117 221 245 226 225 228 226 223 211 198 197 205 243 298 301 264 264 267 262 264 273 270 277 274 275 272 266
164 161 162 163 163 169 176 175 178 177 177 179 190 201 205 149 110 166 216 234 227 228 224 217 220 175 188 199 180 185 208 261 277 276 278 282 283 283 282 270 273 283 293
158 158 162 164 164 161 159 163 169 169 165 167 177 181 184 112 103 160 190 213 225 226 208 198 197 189 207 194 190 177 193 169 206 235 278 300 317 324 295 280 285 269 260
152 155 163 167 163 155 153 157 158 151 146 153 146 142 145 94 76 144 191 188 161 145 116 91 120 129 67 87 146 159 140 77 84 78 51 18 22 16 346 310 296 282 282
139 147 156 161 160 155 151 152 149 148 143 133 117 112 98 78 64 85 190 187 151 145 121 100 76 72 73 84 151 148 137 8 15 82 93 71 340 15 357 315 309 299 295
119 130 139 147 153 149 141 142 143 145 138 129 117 109 95 75 86 79 72 183 140 137 115 102 82 84 82 75 66 56 41 10 32 30 41 31 30 18 2 355 339 322 313
120 119 119 131 148 138 133 136 140 144 144 138 126 116 102 87 72 79 83 77 38 91 83 78 84 92 90 82 71 53 44 16 30 20 18 13 3 2 9 12 13 358 339
124 121 117 118 119 123 129 138 147 157 163 151 142 128 104 92 90 91 99 94 85 90 83 83 86 96 101 93 78 69 74 61 49 28 13 4 359 5 4 6 4 345 307
126 125 126 122 115 107 105 115 122 135 148 140 131 121 106 86 66 85 115 119 122 115 106 108 109 101 91 83 89 79 55 36 15 15 14 17 8 5 357 350 344 340 334
122 123 122 115 107 93 75 50 57 48 30 50 94 94 89 86 55 43 53 72 76 87 104 102 93 90 84 77 71 60 47 44 35 26 26 23 13 10 10 3 349 337 336
127 129 125 119 118 116 107 86 57 57 57 57 54 70 79 77 80 74 72 73 78 96 100 90 84 76 67 58 52 52 45 33 25 25 21 15 10 2 4 2 357 345 340
118 121 118 117 119 118 117 116 107 80 70 64 65 73 83 87 85 85 90 91 91 109 94 85 78 70 63 58 50 45 41 34 21 21 20 12 4 357 356 358 357 347 343
116 111 118 119 115 114 112 112 115 116 107 92 79 77 83 85 83 87 107 115 92 84 77 76 71 64 56 50 45 39 35 34 27 21 19 12 5 358 355 353 356 350 339
117 116 113 111 109 107 106 106 104 102 102 105 107 98 91 96 90 75 92 87 84 80 75 72 64 59 53 47 38 32 31 32 27 17 21 12 4 359 358 353 352 350 333
103 100 109 114 112 111 109 108 105 102 99 96 94 99 113 113 95 85 76 70 73 71 68 67 62 54 49 43 39 35 34 32 23 18 16 6 359 355 353 348 347 343 343
105 108 110 108 104 103 102 102 102 102 99 93 84 69 63 88 84 79 73 68 65 64 62 59 57 54 48 43 38 32 32 30 23 14 6 357 352 351 346 345 344 341 340
104 105 102 98 96 92 94 96 97 97 100 100 99 96 86 83 81 79 74 69 66 62 59 58 55 51 44 37 34 29 27 25 17 3 356 351 346 342 340 341 343 340 337
97 99 97 94 95 97 95 92 93 94 95 94 95 92 86 79 78 75 74 71 66 61 58 55 54 51 44 37 32 28 25 19 6 355 345 339 337 336 337 339 338 337 341
96 99 100 99 97 94 92 90 89 90 91 91 88 84 82 79 77 76 73 71 66 63 60 58 59 58 50 40 34 36 35 15 352 344 340 331 329 333 335 335 335 338 336
95 97 98 99 99 97 96 94 94 94 91 88 86 84 83 81 79 77 74 74 74 71 68 64 61 59 52 46 40 36 27 5 351 339 324 322 330 333 334 334 335 333 333
95 97 97 98 98 98 99 98 95 92 90 88 85 82 81 81 79 78 78 75 75 74 67 63 58 54 49 48 44 35 17 355 344 329 314 317 330 340 339 329 331 329 334